Location: Piedmont
(45.8748°N, 74.1254°W)
Time: 14:53:21
(UTC+00:00)

N. Korean satellite - Pass Details

Date: 06 December 2021
Orbit: 446 x 491 km, 97.3° (Epoch: 18 January)

Event Time Altitude Azimuth Distance (km) Brightness Sun altitude
Rises 22:13:38 0° 202° (SSW) 2,524 10.9 -10.4°
Reaches altitude 10° 22:16:12 10° 222° (SW) 1,641 10.3 -10.8°
Maximum altitude 22:18:40 18° 267° (W) 1,226 9.7 -11.2°
Drops below altitude 10° 22:21:08 10° 312° (NW) 1,631 9.6 -11.6°
Sets 22:23:41 0° 332° (NNW) 2,502 10.3 -12.0°
